Location: *
(50.6089°N, 2.2719°E)
Time: 10:42:16
(UTC+00:00)

Cosmos 1606 Rocket - Pass Details

Date: 18 October 2019
Orbit: 602 x 633 km, 82.5° (Epoch: 17 November)

Event Time Altitude Azimuth Distance (km) Brightness Sun altitude
Rises 17:55:12 0° 195° (SSW) 2,884 7.2 -10.5°
Reaches altitude 10° 17:57:26 10° 198° (SSW) 1,978 6.4 -10.9°
Maximum altitude 18:01:47 68° 282° (WNW) 664 3.9 -11.6°
Drops below altitude 10° 18:06:09 10° 6° (N) 1,976 6.1 -12.2°
Sets 18:08:23 0° 9° (N) 2,881 6.9 -12.6°
